Regional Weather Roundup
Issued by NWS Newport/Morehead, NC

Current Version | Previous Version | Text Only | Print | Product List | Glossary On
Versions: 1 2 3 4 5 6 7 8 9 10 11 12 13 14 15 16 17 18 19 20 21 22 23 24 25 26 27 28 29 30 31 32 33 34 35 36 37 38 39 40 41 42 43 44 45 46 47 48 49 50
000
ASUS42 KMHX 140410
RWRMHX
WEATHER ROUNDUP FOR EASTERN NORTH CAROLINA
NATIONAL WEATHER SERVICE NEWPORT/MOREHEAD CITY NC
1200 AM EDT MON JUL 14 2014

NOTE: "FAIR" INDICATES FEW OR NO CLOUDS BELOW 12,000 FEET
WITH NO SIGNIFICANT WEATHER AND/OR OBSTRUCTIONS TO VISIBILITY

NCZ015>017-031-032-045>047-102-103-140500-
NORTH COAST

CITY           SKY/WX    TMP DP  RH WIND       PRES   REMARKS
EDENTON        CLEAR     78  73  85 SW10      30.05R
ELIZABETH CITY CLEAR     78  73  84 S7        30.04S
KITTY HAWK     PTCLDY    79  73  83 SW7       30.04S
MANTEO         NOT AVBL

$$

NCZ045>047-081-094-103-104-140500-
CENTRAL COAST

CITY           SKY/WX    TMP DP  RH WIND       PRES   REMARKS
FRISCO         PTCLDY    81  74  79 SW12      30.07S
SWANQUARTER      N/A     81 N/A N/A S9G21     30.03S

$$

NCZ095-097-098-100-101-140500-
SOUTHERN COAST

CITY           SKY/WX    TMP DP  RH WIND       PRES   REMARKS
BEAUFORT       MOCLDY    80  75  84 S14       30.07R
CEDAR ISLAND     N/A     79 N/A N/A S5        30.09S
JACKSONVILLE   CLEAR     76  73  91 SW5       30.05F
NEWPORT        NOT AVBL
PINEY ISLAND   CLEAR     78  76  93 S6        30.06S
WILMINGTON     CLEAR     77  74  90 SW3       30.07S


$$

NCZ011>013-027>030-043-044-078>080-089-090>093-098-140500-
COASTAL PLAIN

CITY           SKY/WX    TMP DP  RH WIND       PRES   REMARKS
AHOSKIE        CLEAR     76  72  87 S6        30.03F
CLINTON        CLEAR     76  74  94 S3        30.06S
ELIZABETHTOWN  CLEAR     77  74  90 S3        30.06F
GOLDSBORO      CLEAR     77  76  98 S5        30.03S
GREENVILLE     CLEAR     77  73  88 SW10      30.06S
HAVELOCK       CLEAR     77  72  84 S5        30.07S
KENANSVILLE    CLEAR     76  72  88 CALM      30.07S
KINSTON        CLEAR     77  74  89 S8        30.06F
NEW BERN       CLEAR     79  73  82 S6        30.07S
RICHLANDS      CLEAR     75  72  88 S6        30.07S
ROANOKE RAPIDS NOT AVBL
ROCKY MOUNT    CLEAR     78  74  87 S7        30.04S
WASHINGTON     CLEAR     76  73  88 SW6       30.06S
WHITEVILLE     CLEAR     76  73  88 S5        30.06F

$$

AMZ130-135-150-152-154-156-158-170-250-252-270-ANZ085-086-088-633-658-670-140500-
MARINE OBSERVATIONS

STATION/POSITION TIME  TEMP    WIND        PRES    WAVE   SWELL
                       AIR SEA DIR/SP/G            HT/PER HT/PER
                 (UTC) (F)     (DEG/KT/KT) (MB)    (FT/S) (FT/S)
CHESAPEAKE LIGHT NOT AVBL
BUOY 44014       0400   77 75  190/ 12/ 14 1016.8    2/ 7   2/ 7
DUCK             0400   80 65  190/  8/ 12 1016.6
2E DUCK          0400                        N/A     2/ 8
OREGON INLET     0400   80 84  210/ 12/ 15 1017.8
BUOY 44095       0400      77                N/A     2/ 8
HATTERAS CG      0400   81 83  210/  9/ 12 1018.6
DIAMOND BUOY     0400          VRB 16/ 19  1018.0    3/ 8   2/ 8
17S OCRACOKE INL NOT AVBL
CAPE LOOKOUT     0300   80     200/ 11/ 14 1018.1
BEAUFORT LAB     0400   80 83  200/ 11/ 15 1017.7
30 SE NEW RIVER  0300   80 82  210/ 16/ 17 1018.4
5 SE WRIGHTSVILL 0300   77 82  210/ 14/ 16 1018.7
FRYING PAN BUOY  NOT AVBL
BUOY 41001       NOT AVBL
BUOY 41002       0327   81 83  200/ 10/ 12 1020.2    3/ 8   3/ 8
BUOY 41004       0400   81 82  210/ 14/ 16 1018.2    3/ 8   2/ 8

$$


USA.gov is the U.S. government's official web portal to all federal, state and local government web resources and services.